YFC71 WSSL-WSSL

Flight info

Callsign YFC71
Flight time 0h 12m
Altitude 1500
Route CCTS
Aircraft DA40/L-SDE1FGHILORVWXY/LB1D1

Departure

Time 2026-04-24 13:27
Airport Seletar Airport (WSSL)

Arrival

Time 2026-04-24 13:40
Airport Seletar Airport (WSSL)
Time Latitude Longitude Altitude Speed Heading
2026-04-24 13:22 1.41530 103.86487 49 ft 0 kts 359°
2026-04-24 13:23 1.41543 103.86496 49 ft 8 kts 35°
2026-04-24 13:23 1.41556 103.86504 49 ft 0 kts 29°
2026-04-24 13:24 1.41564 103.86530 49 ft 7 kts 130°
2026-04-24 13:25 1.41528 103.86582 50 ft 10 kts 121°
2026-04-24 13:25 1.41479 103.86620 50 ft 11 kts 200°
2026-04-24 13:25 1.41377 103.86568 49 ft 22 kts 204°
2026-04-24 13:25 1.41220 103.86473 49 ft 30 kts 216°
2026-04-24 13:26 1.41057 103.86362 47 ft 22 kts 214°
2026-04-24 13:26 1.40943 103.86297 47 ft 16 kts 231°
2026-04-24 13:26 1.40956 103.86283 47 ft 5 kts 43°
2026-04-24 13:26 1.41112 103.86385 48 ft 52 kts 32°
2026-04-24 13:27 1.41514 103.86636 124 ft 75 kts 30°
2026-04-24 13:27 1.41990 103.86908 295 ft 83 kts 30°
2026-04-24 13:27 1.42506 103.87201 491 ft 85 kts 30°
2026-04-24 13:27 1.43049 103.87262 747 ft 83 kts 338°
2026-04-24 13:28 1.43428 103.86812 907 ft 92 kts 297°
2026-04-24 13:28 1.43681 103.86200 1002 ft 97 kts 276°
2026-04-24 13:28 1.43331 103.85681 1028 ft 102 kts 203°
2026-04-24 13:28 1.42694 103.85323 1073 ft 109 kts 209°
2026-04-24 13:29 1.42044 103.84919 1155 ft 110 kts 208°
2026-04-24 13:29 1.41389 103.84509 1179 ft 108 kts 211°
2026-04-24 13:29 1.40821 103.84099 1081 ft 93 kts 216°
2026-04-24 13:29 1.40278 103.84068 909 ft 90 kts 128°
2026-04-24 13:30 1.39967 103.84626 788 ft 96 kts 117°
2026-04-24 13:30 1.39651 103.85207 648 ft 92 kts 102°
2026-04-24 13:30 1.39800 103.85554 501 ft 89 kts 30°
2026-04-24 13:30 1.40449 103.85948 237 ft 74 kts 36°
2026-04-24 13:31 1.40848 103.86207 96 ft 66 kts 34°
2026-04-24 13:31 1.41204 103.86444 49 ft 52 kts 35°
2026-04-24 13:31 1.41584 103.86687 120 ft 73 kts 32°
2026-04-24 13:31 1.42031 103.86957 294 ft 79 kts 32°
2026-04-24 13:32 1.42502 103.87249 538 ft 76 kts 30°
2026-04-24 13:32 1.42975 103.87194 745 ft 77 kts 317°
2026-04-24 13:32 1.43177 103.86867 819 ft 86 kts 299°
2026-04-24 13:32 1.43445 103.86326 938 ft 86 kts 295°
2026-04-24 13:33 1.43215 103.85836 942 ft 92 kts 208°
2026-04-24 13:33 1.42656 103.85489 924 ft 100 kts 208°
2026-04-24 13:33 1.42077 103.85121 950 ft 101 kts 210°
2026-04-24 13:33 1.41475 103.84737 991 ft 104 kts 211°
2026-04-24 13:34 1.40873 103.84332 1053 ft 105 kts 212°
2026-04-24 13:34 1.40276 103.83943 1030 ft 97 kts 194°
2026-04-24 13:34 1.39805 103.84242 853 ft 84 kts 118°
2026-04-24 13:34 1.39521 103.84746 709 ft 82 kts 117°
2026-04-24 13:35 1.39500 103.85242 591 ft 74 kts 57°
2026-04-24 13:35 1.39914 103.85584 414 ft 79 kts 38°
2026-04-24 13:35 1.40350 103.85873 249 ft 71 kts 34°
2026-04-24 13:35 1.40747 103.86142 125 ft 67 kts 35°
2026-04-24 13:36 1.41114 103.86381 55 ft 57 kts 35°
2026-04-24 13:36 1.41452 103.86606 63 ft 71 kts 31°
2026-04-24 13:36 1.41882 103.86876 252 ft 74 kts 33°
2026-04-24 13:36 1.42335 103.87138 464 ft 76 kts 29°
2026-04-24 13:37 1.42819 103.87179 692 ft 75 kts 329°
2026-04-24 13:37 1.43126 103.86698 808 ft 89 kts 298°
2026-04-24 13:37 1.43411 103.86131 993 ft 91 kts 296°
2026-04-24 13:37 1.43261 103.85574 1051 ft 94 kts 209°
2026-04-24 13:38 1.42679 103.85227 1052 ft 102 kts 208°
2026-04-24 13:38 1.42067 103.84890 1170 ft 100 kts 204°
2026-04-24 13:38 1.41464 103.84531 1235 ft 99 kts 211°
2026-04-24 13:38 1.40948 103.84194 1201 ft 79 kts 205°
2026-04-24 13:39 1.40466 103.84306 960 ft 75 kts 127°
2026-04-24 13:39 1.40231 103.84784 718 ft 77 kts 112°
2026-04-24 13:39 1.40047 103.85274 517 ft 72 kts 103°
2026-04-24 13:39 1.40185 103.85721 290 ft 70 kts 47°
2026-04-24 13:40 1.40553 103.86000 128 ft 61 kts 38°
2026-04-24 13:40 1.40895 103.86242 64 ft 60 kts 37°
2026-04-24 13:40 1.41189 103.86434 49 ft 34 kts 32°
2026-04-24 13:40 1.41340 103.86537 49 ft 23 kts 34°
2026-04-24 13:41 1.41454 103.86609 50 ft 16 kts 30°
2026-04-24 13:41 1.41517 103.86595 50 ft 8 kts 306°
2026-04-24 13:41 1.41553 103.86541 49 ft 10 kts 301°
2026-04-24 13:41 1.41564 103.86484 49 ft 7 kts 213°
2026-04-24 13:42 1.41541 103.86469 49 ft 5 kts 210°
2026-04-24 13:42 1.41488 103.86436 49 ft 11 kts 202°
2026-04-24 13:42 1.41426 103.86409 49 ft 9 kts 212°
2026-04-24 13:42 1.41372 103.86372 49 ft 10 kts 214°
2026-04-24 13:43 1.41316 103.86337 49 ft 9 kts 215°
2026-04-24 13:43 1.41309 103.86317 49 ft 2 kts 287°
2026-04-24 13:43 1.41330 103.86303 49 ft 6 kts 11°
2026-04-24 13:43 1.41364 103.86307 49 ft 5 kts
2026-04-24 13:44 1.41382 103.86316 49 ft 2 kts 97°
2026-04-24 13:44 1.41380 103.86324 49 ft 0 kts 92°
2026-04-24 13:44 1.41380 103.86327 49 ft 0 kts 93°